Regional Weather Roundup
Issued by NWS

Home | Current Version | Previous Version | Text Only | Print | Product List | Glossary On
Versions: 1 2 3 4 5 6 7 8 9 10 11 12 13 14 15 16 17 18 19 20 21 22 23 24 25 26 27 28 29 30 31 32 33 34 35 36 37 38 39 40 41 42 43 44 45 46 47 48 49 50
000
ASUS43 KTOP 280008
RWRKS

WEATHER ROUNDUP FOR KANSAS
NATIONAL WEATHER SERVICE GOODLAND KS
600 PM CST THU NOV 27 2014

NOTE:  "FAIR" INDICATES FEW OR NO CLOUDS BELOW 12,000 FEET WITH NO
SIGNIFICANT WEATHER AND/OR OBSTRUCTIONS TO VISIBILITY.

KSZ001>006-013>018-027>032-041>047-280100-
NORTHWEST KANSAS

CITY           SKY/WX    TMP DP  RH WIND       PRES   REMARKS
GOODLAND       CLOUDY    53  26  35 SW14      30.07R
6HR MIN TEMP:  53; 6HR MAX TEMP:  65;

HAYS           MOCLDY    43  19  39 S10       30.15F
HILL CITY      PTCLDY    42  22  44 SE6       30.10F
6HR MIN TEMP:  42; 6HR MAX TEMP:  54;

RUSSELL        MOCLDY    40  22  48 SE15      30.15F WCI  32
6HR MIN TEMP:  39; 6HR MAX TEMP:  49;

$$

KSZ061>065-074>080-084>089-280100-
SOUTHWEST KANSAS

CITY           SKY/WX    TMP DP  RH WIND       PRES   REMARKS
DODGE CITY     PTCLDY    47  24  40 S14       30.15F
6HR MIN TEMP:  46; 6HR MAX TEMP:  54;

ELKHART          N/A     50  27  41 S8          N/A
GARDEN CITY    MOCLDY    47  28  47 S10       30.12F
6HR MIN TEMP:  47; 6HR MAX TEMP:  56;

GREAT BEND     CLOUDY    43  19  39 SE15      30.19F
LIBERAL        MOCLDY    50  28  43 S8        30.18R
PRATT          PTCLDY    43  19  39 S9        30.22S
$$

KSZ066>073-081>083-090>101-280100-
SOUTHEAST KANSAS

CITY           SKY/WX    TMP DP  RH WIND       PRES   REMARKS
CHANUTE        CLEAR     35  23  61 SE9       30.35F
6HR MIN TEMP:  35; 6HR MAX TEMP:  43;

COFFEYVILLE    PTCLDY    38  23  55 SE8       30.37F
6HR MIN TEMP:  36; 6HR MAX TEMP:  45;

HUTCHINSON     MOCLDY    40  18  41 SE10      30.25F WCI  33
6HR MIN TEMP:  40; 6HR MAX TEMP:  46;

MEDICINE LODGE   N/A     43  22  43 SE8       30.25R
NEWTON         MOCLDY    37  16  41 S12       30.28F WCI  30
PARSONS        PTCLDY    38  24  57 SE5       30.37F
6HR MIN TEMP:  37; 6HR MAX TEMP:  44;

WICHITA INTL   MOCLDY    40  19  43 SE9       30.29F
6HR MIN TEMP:  40; 6HR MAX TEMP:  46;

WICHITA JABRA  MOCLDY    39  18  42 S9        30.29F
6HR MIN TEMP:  39; 6HR MAX TEMP:  45;

WICHITA MCCONL PTCLDY    39  16  39 S8        30.29F
WINFIELD       PTCLDY    40  19  43 SE7       30.31F
6HR MIN TEMP:  39; 6HR MAX TEMP:  47;

$$

KSZ007>012-019>026-033>040-048>060-102>105-280100-
NORTHEAST KANSAS

CITY           SKY/WX    TMP DP  RH WIND       PRES   REMARKS
CONCORDIA      CLEAR     35  16  45 S9        30.22S
6HR MIN TEMP:  34; 6HR MAX TEMP:  42;

EMPORIA        CLEAR     34  18  52 SE9       30.31F
6HR MIN TEMP:  33; 6HR MAX TEMP:  42;

LAWRENCE       MOCLDY    32  21  64 SE6       30.36F
6HR MIN TEMP:  31; 6HR MAX TEMP:  39;

MANHATTAN      CLEAR     37  15  40 SE6       30.28F
6HR MIN TEMP:  33; 6HR MAX TEMP:  45;

MARYSVILLE     CLEAR     34  21  60 SE10      30.25F WCI  26
OLATHE IND     MOCLDY    35  22  58 SE8       30.35F
6HR MIN TEMP:  31; 6HR MAX TEMP:  38;

OLATHE EXE     PTCLDY    35  21  56 SE8       30.34F
6HR MIN TEMP:  31; 6HR MAX TEMP:  38;

SALINA         PTCLDY    38  18  44 SE8       30.24F
6HR MIN TEMP:  36; 6HR MAX TEMP:  46;

TOPEKA BILLARD MOCLDY    34  21  59 SE8       30.34S
6HR MIN TEMP:  33; 6HR MAX TEMP:  41;

TOPEKA FORBES  MOCLDY    35  20  54 SE7       30.33S
6HR MIN TEMP:  33; 6HR MAX TEMP:  41;

$$


USA.gov is the U.S. government's official web portal to all federal, state and local government web resources and services.